Weather History for KJYM - October, 2013

Change the Weather History Date:

Tuesday, October 1, 2013

  Actual Average Record
Temperature  
Mean Temperature 60 °F -  
Max Temperature 69 °F 68 °F 88 °F (1971)
Min Temperature 50 °F 42 °F 29 °F (1960)
Degree Days  
Heating Degree Days 6    
Growing Degree Days 10 (Base 50)    
Moisture  
Dew Point 60 °F    
Average Humidity 92    
Maximum Humidity 100    
Minimum Humidity 75    
Precipitation  
Precipitation 0.00 in - - ()
Sea Level Pressure  
Sea Level Pressure 30.00 in    
Wind  
Wind Speed 4 mph (SW)    
Max Wind Speed 10 mph    
Max Gust Speed 17 mph    
Visibility 7 miles    
Events Fog    
Averages and records for this station are not official NWS values.
T = Trace of Precipitation, MM = Missing Value Source: NWS Daily Summary

Daily Weather History Graph

Daily Weather History Graph

Search for Another Location

Airport or City:

Trip Planner

Search our weather history database for the weather conditions in past years. The results will help you decide how hot, cold, wet, or windy it might be!

Date:

Astronomy

Oct. 01, 2013 Rise Set
Actual Time 7:35 AM EDT 7:19 PM EDT
Civil Twilight 7:07 AM EDT 7:47 PM EDT
Nautical Twilight 6:35 AM EDT 8:19 PM EDT
Astronomical Twilight 6:02 AM EDT 8:52 PM EDT
Moon 4:06 AM EDT (10/1) 5:25 PM EDT (10/1)
Length of Visible Light 12h 39m
Length of Day
11h 44m
Waning Crescent, 12% of the Moon is Illuminated
Oct 1
Waning Crescent
Oct 4
New
Oct 11
First Quarter
Oct 18
Full
Oct 26
Last Quarter

Hourly Weather History & Observations

Time (EDT) Temp. Dew Point Humidity Pressure Visibility Wind Dir Wind Speed Gust Speed Precip Events Conditions
12:15 AM 50.7 °F 50.4 °F 99% 29.98 in 10.0 mi Calm Calm - N/A   Clear
12:34 AM 52.2 °F 51.8 °F 99% 29.98 in 10.0 mi Calm Calm - N/A   Clear
12:55 AM 52.5 °F 52.0 °F 98% 29.98 in 10.0 mi Calm Calm - N/A   Clear
1:15 AM 51.8 °F 51.4 °F 99% 29.98 in 7.0 mi South 3.5 mph - N/A   Clear
1:34 AM 53.2 °F 52.7 °F 98% 29.98 in 10.0 mi South 3.5 mph - N/A   Clear
1:55 AM 54.3 °F 53.1 °F 95% 29.98 in 10.0 mi South 3.5 mph - N/A   Clear
2:14 AM 55.0 °F 53.2 °F 94% 29.98 in 10.0 mi Calm Calm - N/A   Clear
2:34 AM 54.1 °F 52.9 °F 95% 29.98 in 10.0 mi SSW 4.6 mph - N/A   Clear
2:55 AM 55.8 °F 54.0 °F 94% 29.99 in 10.0 mi SSW 3.5 mph - N/A   Clear
3:14 AM 56.5 °F 54.3 °F 92% 29.98 in 10.0 mi SSW 4.6 mph - N/A   Clear
3:34 AM 57.6 °F 56.1 °F 95% 29.98 in 10.0 mi SW 4.6 mph - N/A   Clear
3:55 AM 58.3 °F 57.0 °F 96% 29.98 in 7.0 mi SW 3.5 mph - N/A   Clear
4:14 AM 57.7 °F 56.8 °F 97% 29.99 in 7.0 mi WSW 3.5 mph - N/A   Clear
4:34 AM 57.6 °F 57.0 °F 98% 30.00 in 5.0 mi WSW 3.5 mph - N/A   Clear
4:55 AM 58.3 °F 58.1 °F 99% 30.00 in 4.0 mi WSW 4.6 mph - N/A   Clear
5:14 AM 58.6 °F 58.6 °F 100% 30.00 in 4.0 mi WSW 4.6 mph - N/A   Clear
5:35 AM 59.2 °F 59.2 °F 100% 30.00 in 3.0 mi WSW 4.6 mph - N/A   Clear
5:55 AM 59.2 °F 59.0 °F 99% 30.00 in 3.0 mi SW 3.5 mph - N/A   Clear
6:14 AM 59.4 °F 59.4 °F 100% 30.00 in 2.5 mi SW 3.5 mph - N/A   Mostly Cloudy
6:35 AM 59.4 °F 59.4 °F 100% 30.01 in 1.8 mi SW 3.5 mph - N/A   Overcast
6:54 AM 59.5 °F 59.5 °F 100% 30.01 in 1.0 mi SW 4.6 mph - N/A   Overcast
7:14 AM 59.4 °F 59.4 °F 100% 30.01 in 0.2 mi SW 3.5 mph - N/A Fog Fog
7:35 AM 59.4 °F 59.4 °F 100% 30.02 in 0.2 mi SW 4.6 mph - N/A Fog Fog
7:54 AM 59.9 °F 59.9 °F 100% 30.02 in 0.2 mi WSW 4.6 mph - N/A Fog Fog
8:14 AM 60.3 °F 60.3 °F 100% 30.02 in 0.5 mi SW 5.8 mph - N/A Fog Fog
8:35 AM 61.0 °F 61.0 °F 100% 30.02 in 1.0 mi SSW 3.5 mph - N/A   Overcast
8:54 AM 61.2 °F 61.2 °F 100% 30.02 in 1.0 mi Calm Calm - N/A   Overcast
9:14 AM 61.7 °F 61.7 °F 100% 30.03 in 1.0 mi Calm Calm - N/A   Overcast
9:35 AM 62.2 °F 62.2 °F 100% 30.03 in 1.8 mi SW 4.6 mph - N/A   Overcast
9:54 AM 63.1 °F 63.1 °F 100% 30.03 in 2.5 mi SW 3.5 mph - N/A   Overcast
10:14 AM 63.9 °F 63.9 °F 100% 30.03 in 4.0 mi WSW 5.8 mph - N/A   Overcast
10:35 AM 64.8 °F 63.9 °F 97% 30.03 in 5.0 mi SW 6.9 mph - N/A   Overcast
10:54 AM 65.1 °F 63.5 °F 94% 30.03 in 5.0 mi SW 6.9 mph - N/A   Overcast
11:15 AM 66.4 °F 63.9 °F 92% 30.03 in 7.0 mi SSW 4.6 mph - N/A   Overcast
11:34 AM 66.6 °F 63.1 °F 89% 30.03 in 7.0 mi SSW 6.9 mph - N/A   Overcast
11:54 AM 66.6 °F 63.1 °F 89% 30.03 in 7.0 mi SSW 6.9 mph - N/A   Overcast
12:15 PM 66.4 °F 63.0 °F 89% 30.03 in 7.0 mi SSW 6.9 mph - N/A   Overcast
12:34 PM 66.7 °F 63.0 °F 88% 30.03 in 7.0 mi SSW 5.8 mph - N/A   Overcast
12:54 PM 66.0 °F 62.6 °F 89% 30.03 in 7.0 mi SW 5.8 mph - N/A   Overcast
1:15 PM 66.2 °F 62.4 °F 88% 30.03 in 7.0 mi SW 6.9 mph - N/A   Overcast
1:34 PM 66.7 °F 62.1 °F 85% 30.02 in 10.0 mi SW 10.4 mph - N/A   Overcast
1:54 PM 67.1 °F 62.2 °F 84% 30.01 in 10.0 mi SW 6.9 mph - N/A   Overcast
2:15 PM 67.1 °F 62.4 °F 85% 30.01 in 10.0 mi SW 8.1 mph - N/A   Overcast
2:34 PM 66.9 °F 62.6 °F 86% 30.01 in 10.0 mi SW 5.8 mph - N/A   Overcast
2:54 PM 66.9 °F 62.4 °F 85% 30.01 in 7.0 mi SW 9.2 mph - N/A   Overcast
3:15 PM 66.7 °F 62.4 °F 86% 30.00 in 7.0 mi SSW 9.2 mph - N/A   Overcast
3:34 PM 66.7 °F 62.8 °F 87% 30.00 in 7.0 mi SW 6.9 mph - N/A   Overcast
3:55 PM 67.3 °F 63.0 °F 86% 30.00 in 7.0 mi SSW 6.9 mph - N/A   Overcast
4:14 PM 67.3 °F 62.8 °F 85% 29.99 in 7.0 mi SW 6.9 mph - N/A   Overcast
4:34 PM 67.3 °F 62.8 °F 85% 29.99 in 7.0 mi SW 8.1 mph - N/A   Overcast
4:55 PM 68.2 °F 63.0 °F 83% 29.99 in 10.0 mi SSW 5.8 mph - N/A   Overcast
5:14 PM 68.4 °F 62.4 °F 81% 29.99 in 10.0 mi SW 8.1 mph - N/A   Mostly Cloudy
5:34 PM 68.5 °F 61.3 °F 78% 29.98 in 10.0 mi SW 10.4 mph 17.3 mph N/A   Overcast
5:55 PM 69.4 °F 61.2 °F 75% 29.98 in 10.0 mi SW 8.1 mph - N/A   Mostly Cloudy
6:14 PM 68.4 °F 61.3 °F 78% 29.98 in 10.0 mi SSW 5.8 mph - N/A   Scattered Clouds
6:34 PM 68.4 °F 61.0 °F 77% 29.98 in 10.0 mi SW 6.9 mph - N/A   Scattered Clouds
6:55 PM 67.5 °F 60.6 °F 79% 29.98 in 10.0 mi SSW 6.9 mph - N/A   Clear
7:14 PM 66.2 °F 60.6 °F 82% 29.98 in 10.0 mi SSW 4.6 mph - N/A   Clear
7:34 PM 64.9 °F 60.4 °F 85% 29.97 in 10.0 mi SSW 4.6 mph - N/A   Clear
7:55 PM 64.4 °F 60.6 °F 88% 29.98 in 10.0 mi SSW 4.6 mph - N/A   Clear
8:14 PM 63.3 °F 60.4 °F 90% 29.98 in 10.0 mi SSW 4.6 mph - N/A   Clear
8:35 PM 63.0 °F 60.4 °F 91% 29.98 in 10.0 mi SSW 3.5 mph - N/A   Clear
8:55 PM 63.9 °F 60.8 °F 90% 29.98 in 10.0 mi SSW 5.8 mph - N/A   Clear
9:14 PM 63.9 °F 61.0 °F 90% 29.98 in 10.0 mi SSW 4.6 mph - N/A   Clear
9:35 PM 63.7 °F 61.2 °F 91% 29.99 in 10.0 mi SSW 5.8 mph - N/A   Clear
9:54 PM 63.9 °F 61.2 °F 91% 29.99 in 10.0 mi SSW 5.8 mph - N/A   Clear
10:14 PM 63.9 °F 61.2 °F 91% 29.99 in 10.0 mi SW 5.8 mph - N/A   Clear
10:34 PM 63.9 °F 61.3 °F 91% 29.99 in 10.0 mi SW 4.6 mph - N/A   Clear
10:54 PM 63.9 °F 61.3 °F 91% 29.99 in 10.0 mi SW 5.8 mph - N/A   Clear
11:15 PM 63.3 °F 61.3 °F 93% 29.99 in 10.0 mi SW 5.8 mph - N/A   Clear
11:34 PM 63.1 °F 61.3 °F 94% 29.99 in 10.0 mi SW 5.8 mph - N/A   Clear
11:54 PM 63.5 °F 61.5 °F 93% 29.99 in 10.0 mi SW 8.1 mph - N/A   Clear